Powrót do katalogu

HOTBIRD 13G

AktywnyŁącznośćGEO
NORAD 54225·PAYLOAD·🇪🇺 EU

Wystrzelony Nov 3, 2022 z Cape Canaveral Space Force Station

Loading…

TLE

ŚwieżeSource: Space-Track

Epoka: Sep 14, 2026, 13:51 UTC

1 54225U 22146A   26257.57770103  .00000079  00000-0  00000-0 0  9991
2 54225   0.0508 235.0558 0002069 301.3331  38.1367  1.00273434  8361

Śledź HOTBIRD 13G w czasie rzeczywistym z AllMySat

Download on the App Store